Waarnemingen

Advertentie
Mijn weer
Arezzo, Italië (16172): temperatuur & dauwpunt: 21.04.2018 08:00:00 - 27.04.2018 08:00:00 (CEST)Arezzo, Italië (16172): windsnelheid: 21.04.2018 08:00:00 - 27.04.2018 08:00:00 (CEST)Arezzo, Italië (16172): windrichting: 21.04.2018 08:00:00 - 27.04.2018 08:00:00 (CEST)Arezzo, Italië (16172): luchtdruk: 21.04.2018 08:00:00 - 27.04.2018 08:00:00 (CEST)Arezzo, Italië (16172): zicht: 21.04.2018 08:00:00 - 27.04.2018 08:00:00 (CEST)
Datum & Tijd tt [°C] td [°C] ff [km/u] ff [kn] dd ppp [hPa] vv [km]
27.04.2018 08:00:00 10,4 9,3 0 0 N 1013,4 15
27.04.2018 07:00:00 - - - - - - -
27.04.2018 06:00:00 - - - - - - -
27.04.2018 05:00:00 - - - - - - -
27.04.2018 04:00:00 - - - - - - -
27.04.2018 03:00:00 - - - - - - -
27.04.2018 02:00:00 - - - - - - -
27.04.2018 01:00:00 - - - - - - -
27.04.2018 00:00:00 - - - - - - -
26.04.2018 23:00:00 - - - - - - -
26.04.2018 22:00:00 - - - - - - -
26.04.2018 21:00:00 - - - - - - -
26.04.2018 20:00:00 20,0 9,0 13 7 ZZW 1010,2 18
26.04.2018 19:00:00 - - - - - - -
26.04.2018 18:00:00 - - - - - - -
26.04.2018 17:00:00 23,0 8,7 9 5 Z 1011,6 18
26.04.2018 16:00:00 - - - - - - -
26.04.2018 15:00:00 - - - - - - -
26.04.2018 14:00:00 23,2 9,6 11 6 Z 1013,3 17
26.04.2018 13:00:00 - - - - - - -
26.04.2018 12:00:00 - - - - - - -
26.04.2018 11:00:00 19,4 9,0 9 5 WZW 1015,4 15
26.04.2018 10:00:00 - - - - - - -
26.04.2018 09:00:00 - - - - - - -
26.04.2018 08:00:00 10,2 8,1 0 0 N 1016,9 15
26.04.2018 07:00:00 - - - - - - -
26.04.2018 06:00:00 - - - - - - -
26.04.2018 05:00:00 - - - - - - -
26.04.2018 04:00:00 - - - - - - -
26.04.2018 03:00:00 - - - - - - -
26.04.2018 02:00:00 - - - - - - -
26.04.2018 01:00:00 - - - - - - -
26.04.2018 00:00:00 - - - - - - -
25.04.2018 23:00:00 - - - - - - -
25.04.2018 22:00:00 - - - - - - -
25.04.2018 21:00:00 - - - - - - -
25.04.2018 20:00:00 20,0 8,1 13 7 ZZW 1015,0 17
25.04.2018 19:00:00 - - - - - - -
25.04.2018 18:00:00 - - - - - - -
25.04.2018 17:00:00 23,8 8,7 11 6 ZZW 1015,5 18
25.04.2018 16:00:00 - - - - - - -
25.04.2018 15:00:00 - - - - - - -
25.04.2018 14:00:00 23,6 8,1 9 5 ZZO 1017,4 18
25.04.2018 13:00:00 - - - - - - -
25.04.2018 12:00:00 - - - - - - -
25.04.2018 11:00:00 18,8 10,6 4 2 ZW 1019,1 16
25.04.2018 10:00:00 - - - - - - -
25.04.2018 09:00:00 - - - - - - -
25.04.2018 08:00:00 10,4 9,6 0 0 N 1019,8 14
25.04.2018 07:00:00 - - - - - - -
25.04.2018 06:00:00 - - - - - - -
25.04.2018 05:00:00 - - - - - - -
25.04.2018 04:00:00 - - - - - - -
25.04.2018 03:00:00 - - - - - - -
25.04.2018 02:00:00 - - - - - - -
25.04.2018 01:00:00 - - - - - - -
25.04.2018 00:00:00 - - - - - - -
24.04.2018 23:00:00 - - - - - - -
24.04.2018 22:00:00 - - - - - - -
24.04.2018 21:00:00 - - - - - - -
24.04.2018 20:00:00 20,2 8,9 11 6 ZZW 1017,8 18
24.04.2018 19:00:00 - - - - - - -
24.04.2018 18:00:00 - - - - - - -
24.04.2018 17:00:00 23,8 8,7 15 8 ZZW 1017,6 20
24.04.2018 16:00:00 - - - - - - -
24.04.2018 15:00:00 - - - - - - -
24.04.2018 14:00:00 22,6 8,0 11 6 ZZO 1019,3 20
24.04.2018 13:00:00 - - - - - - -
24.04.2018 12:00:00 - - - - - - -
24.04.2018 11:00:00 18,6 9,9 4 2 Z 1020,0 16
24.04.2018 10:00:00 - - - - - - -
24.04.2018 09:00:00 - - - - - - -
24.04.2018 08:00:00 10,4 9,0 0 0 N 1020,1 14
24.04.2018 07:00:00 - - - - - - -
24.04.2018 06:00:00 - - - - - - -
24.04.2018 05:00:00 - - - - - - -
24.04.2018 04:00:00 - - - - - - -
24.04.2018 03:00:00 - - - - - - -
24.04.2018 02:00:00 - - - - - - -
24.04.2018 01:00:00 - - - - - - -
24.04.2018 00:00:00 - - - - - - -
23.04.2018 23:00:00 - - - - - - -
23.04.2018 22:00:00 - - - - - - -
23.04.2018 21:00:00 - - - - - - -
23.04.2018 20:00:00 20,8 6,0 9 5 W 1017,2 20
23.04.2018 19:00:00 - - - - - - -
23.04.2018 18:00:00 - - - - - - -
23.04.2018 17:00:00 23,4 8,3 16 9 WNW 1017,2 20
23.04.2018 16:00:00 - - - - - - -
23.04.2018 15:00:00 - - - - - - -
23.04.2018 14:00:00 24,4 12,1 11 6 WZW 1018,2 20
23.04.2018 13:00:00 - - - - - - -
23.04.2018 12:00:00 - - - - - - -
23.04.2018 11:00:00 19,8 10,0 5 3 ZO 1019,0 20
23.04.2018 10:00:00 - - - - - - -
23.04.2018 09:00:00 - - - - - - -
23.04.2018 08:00:00 10,2 8,5 0 0 N 1019,9 16
23.04.2018 07:00:00 - - - - - - -
23.04.2018 06:00:00 - - - - - - -
23.04.2018 05:00:00 - - - - - - -
23.04.2018 04:00:00 - - - - - - -
23.04.2018 03:00:00 - - - - - - -
23.04.2018 02:00:00 - - - - - - -
23.04.2018 01:00:00 - - - - - - -
23.04.2018 00:00:00 - - - - - - -
22.04.2018 23:00:00 - - - - - - -
22.04.2018 22:00:00 - - - - - - -
22.04.2018 21:00:00 - - - - - - -
22.04.2018 20:00:00 25,4 11,6 9 5 W 1015,7 20
22.04.2018 19:00:00 - - - - - - -
22.04.2018 18:00:00 - - - - - - -
22.04.2018 17:00:00 25,4 9,7 5 3 W 1015,7 20
22.04.2018 16:00:00 - - - - - - -
22.04.2018 15:00:00 - - - - - - -
22.04.2018 14:00:00 24,8 9,1 8 4 ZW 1017,4 20
22.04.2018 13:00:00 - - - - - - -
22.04.2018 12:00:00 - - - - - - -
22.04.2018 11:00:00 19,8 12,3 8 4 ZW 1018,6 18
22.04.2018 10:00:00 - - - - - - -
22.04.2018 09:00:00 - - - - - - -
22.04.2018 08:00:00 9,8 9,5 0 0 N 1019,6 14
22.04.2018 07:00:00 - - - - - - -
22.04.2018 06:00:00 - - - - - - -
22.04.2018 05:00:00 - - - - - - -
22.04.2018 04:00:00 - - - - - - -
22.04.2018 03:00:00 - - - - - - -
22.04.2018 02:00:00 - - - - - - -
22.04.2018 01:00:00 - - - - - - -
22.04.2018 00:00:00 - - - - - - -
21.04.2018 23:00:00 - - - - - - -
21.04.2018 22:00:00 - - - - - - -
21.04.2018 21:00:00 - - - - - - -
21.04.2018 20:00:00 22,2 3,8 9 5 O 1016,8 20
21.04.2018 19:00:00 - - - - - - -
21.04.2018 18:00:00 - - - - - - -
21.04.2018 17:00:00 25,2 4,4 13 7 O 1018,1 20
21.04.2018 16:00:00 - - - - - - -
21.04.2018 15:00:00 - - - - - - -
21.04.2018 14:00:00 26,0 6,1 15 8 O 1019,2 20
21.04.2018 13:00:00 - - - - - - -
21.04.2018 12:00:00 - - - - - - -
21.04.2018 11:00:00 22,6 8,3 5 3 NNW 1019,6 20
21.04.2018 10:00:00 - - - - - - -
21.04.2018 09:00:00 - - - - - - -
21.04.2018 08:00:00 11,6 9,0 4 2 O 1021,1 14

tt = temperatuur
td = dauwpunt
ff = windsnelheid
dd = windrichting
ppp = luchtdruk
vv = zicht

Weerstations in de omgeving